Weather History for Ruston, LA

Change the Weather History Date:

Sunday, October 21, 2012

  Actual Average Record
Temperature  
Mean Temperature 72 °F -  
Max Temperature 84 °F 74 °F 98 °F (2001)
Min Temperature 60 °F 49 °F 29 °F (1976)
Cooling Degree Days 6    
Growing Degree Days 22 (Base 50)    
Moisture  
Dew Point 57 °F    
Average Humidity 64    
Maximum Humidity 81    
Minimum Humidity 36    
Precipitation  
Precipitation 0.00 in - - ()
Sea Level Pressure  
Sea Level Pressure 30.03 in    
Wind  
Wind Speed 7 mph (South)    
Max Wind Speed 14 mph    
Max Gust Speed 21 mph    
Visibility 10 miles    
Events      
Averages and records for this station are not official NWS values.
T = Trace of Precipitation, MM = Missing Value Source: NWS Daily Summary

Daily Weather History Graph

Daily Weather History Graph

Search for Another Location

Airport:

Trip Planner

Search our weather history database for the weather conditions in past years. The results will help you decide how hot, cold, wet, or windy it might be!

Date:

Astronomy

Oct. 21, 2012 Rise Set
Actual Time 7:19 AM CDT 6:30 PM CDT
Civil Twilight 6:54 AM CDT 6:55 PM CDT
Nautical Twilight 6:25 AM CDT 7:23 PM CDT
Astronomical Twilight 5:56 AM CDT 7:52 PM CDT
Moon 1:33 PM CDT (10/21) No Moon Set
Length of Visible Light 12h 00m
Length of Day
11h 10m
Waxing Crescent, 45% of the Moon is Illuminated
Oct 21
Waxing Crescent
Oct 21
First Quarter
Oct 29
Full
Nov 6
Last Quarter
Nov 13
New

Hourly Weather History & Observations

Time (CDT) Temp. Heat Index Dew Point Humidity Pressure Visibility Wind Dir Wind Speed Gust Speed Precip Events Conditions
12:15 AM 61.9 °F - 48.6 °F 62% 29.97 in 10.0 mi South 5.8 mph - N/A   Mostly Cloudy
12:35 AM 62.6 °F - 48.6 °F 60% 29.97 in 10.0 mi South 5.8 mph - N/A   Mostly Cloudy
12:55 AM 61.9 °F - 49.1 °F 63% 29.97 in 10.0 mi South 5.8 mph - N/A   Scattered Clouds
1:15 AM 60.1 °F - 50.5 °F 71% 29.97 in 10.0 mi South 4.6 mph - N/A   Scattered Clouds
1:35 AM 61.2 °F - 52.0 °F 72% 29.98 in 10.0 mi South 3.5 mph - N/A   Mostly Cloudy
1:55 AM 62.1 °F - 51.8 °F 69% 29.98 in 10.0 mi South 3.5 mph - N/A   Overcast
2:15 AM 62.6 °F - 52.5 °F 70% 29.99 in 10.0 mi South 4.6 mph - N/A   Overcast
2:35 AM 63.3 °F - 51.8 °F 66% 29.99 in 10.0 mi South 5.8 mph - N/A   Overcast
2:55 AM 63.0 °F - 52.3 °F 68% 29.99 in 10.0 mi South 5.8 mph - N/A   Overcast
3:15 AM 62.6 °F - 52.9 °F 70% 29.99 in 10.0 mi South 5.8 mph - N/A   Overcast
3:35 AM 62.8 °F - 53.4 °F 71% 29.99 in 10.0 mi South 6.9 mph - N/A   Overcast
3:55 AM 63.1 °F - 53.6 °F 71% 29.99 in 10.0 mi South 5.8 mph - N/A   Overcast
4:15 AM 63.0 °F - 53.4 °F 71% 29.99 in 10.0 mi South 5.8 mph - N/A   Mostly Cloudy
4:35 AM 62.6 °F - 53.6 °F 72% 30.00 in 10.0 mi South 5.8 mph - N/A   Mostly Cloudy
4:55 AM 62.6 °F - 54.3 °F 74% 30.01 in 10.0 mi South 4.6 mph - N/A   Overcast
5:15 AM 61.7 °F - 54.5 °F 77% 30.01 in 10.0 mi South 4.6 mph - N/A   Mostly Cloudy
5:35 AM 62.2 °F - 54.5 °F 76% 30.01 in 10.0 mi South 5.8 mph - N/A   Mostly Cloudy
5:55 AM 61.9 °F - 54.5 °F 77% 30.02 in 10.0 mi South 5.8 mph - N/A   Mostly Cloudy
6:15 AM 61.9 °F - 54.5 °F 77% 30.03 in 10.0 mi South 4.6 mph - N/A   Mostly Cloudy
6:35 AM 61.9 °F - 54.9 °F 78% 30.03 in 10.0 mi South 4.6 mph - N/A   Overcast
6:55 AM 61.7 °F - 55.0 °F 79% 30.03 in 10.0 mi South 4.6 mph - N/A   Mostly Cloudy
7:15 AM 61.7 °F - 55.6 °F 80% 30.04 in 10.0 mi South 5.8 mph - N/A   Mostly Cloudy
7:35 AM 61.5 °F - 55.8 °F 81% 30.04 in 10.0 mi South 5.8 mph - N/A   Scattered Clouds
7:55 AM 62.1 °F - 56.3 °F 81% 30.04 in 10.0 mi South 5.8 mph - N/A   Clear
8:15 AM 63.9 °F - 57.0 °F 78% 30.05 in 10.0 mi South 5.8 mph - N/A   Clear
8:35 AM 65.3 °F - 57.2 °F 75% 30.06 in 10.0 mi South 6.9 mph - N/A   Clear
8:55 AM 66.4 °F - 57.4 °F 73% 30.08 in 10.0 mi South 6.9 mph - N/A   Clear
9:15 AM 68.7 °F - 56.8 °F 66% 30.08 in 10.0 mi South 10.4 mph - N/A   Clear
9:35 AM 70.3 °F - 57.2 °F 63% 30.08 in 10.0 mi SSW 10.4 mph - N/A   Scattered Clouds
9:55 AM 70.2 °F - 57.4 °F 64% 30.09 in 10.0 mi SSW 9.2 mph - N/A   Scattered Clouds
10:15 AM 71.2 °F - 57.9 °F 63% 30.09 in 10.0 mi South 11.5 mph - N/A   Mostly Cloudy
10:35 AM 72.5 °F - 58.6 °F 62% 30.09 in 10.0 mi South 10.4 mph - N/A   Overcast
10:55 AM 74.1 °F - 59.9 °F 61% 30.09 in 10.0 mi SSW 10.4 mph - N/A   Mostly Cloudy
11:15 AM 75.9 °F - 59.9 °F 57% 30.09 in 10.0 mi South 11.5 mph - N/A   Scattered Clouds
11:35 AM 76.1 °F - 60.6 °F 59% 30.08 in 10.0 mi South 9.2 mph - N/A   Scattered Clouds
11:55 AM 76.8 °F - 61.5 °F 59% 30.08 in 10.0 mi SSW 11.5 mph - N/A   Mostly Cloudy
12:15 PM 78.6 °F - 62.1 °F 57% 30.07 in 10.0 mi SSW 11.5 mph 17.3 mph N/A   Scattered Clouds
12:35 PM 79.7 °F - 62.1 °F 55% 30.07 in 10.0 mi SW 13.8 mph 20.7 mph N/A   Clear
12:55 PM 80.1 °F 81.2 °F 62.2 °F 54% 30.06 in 10.0 mi South 12.7 mph - N/A   Scattered Clouds
1:15 PM 79.5 °F - 61.9 °F 55% 30.05 in 10.0 mi South 12.7 mph - N/A   Scattered Clouds
1:35 PM 80.2 °F 81.3 °F 61.9 °F 53% 30.04 in 10.0 mi SSW 12.7 mph - N/A   Scattered Clouds
1:55 PM 81.0 °F 81.6 °F 59.9 °F 49% 30.03 in 10.0 mi South 13.8 mph - N/A   Scattered Clouds
2:15 PM 81.5 °F 82.1 °F 60.4 °F 49% 30.02 in 10.0 mi SSW 4.6 mph - N/A   Clear
2:35 PM 82.2 °F 82.9 °F 61.2 °F 49% 30.01 in 10.0 mi South 8.1 mph - N/A   Clear
2:55 PM 83.8 °F 82.6 °F 54.0 °F 36% 30.01 in 10.0 mi SSW 13.8 mph - N/A   Clear
3:15 PM 83.3 °F 82.5 °F 55.6 °F 39% 30.01 in 10.0 mi South 10.4 mph - N/A   Clear
3:35 PM 83.7 °F 82.5 °F 54.9 °F 37% 30.01 in 10.0 mi South 13.8 mph - N/A   Clear
3:55 PM 83.3 °F 82.2 °F 54.7 °F 37% 30.01 in 10.0 mi South 10.4 mph - N/A   Clear
4:15 PM 83.7 °F 82.5 °F 54.9 °F 37% 30.01 in 10.0 mi South 12.7 mph - N/A   Clear
4:35 PM 83.5 °F 82.8 °F 56.7 °F 40% 30.00 in 10.0 mi South 6.9 mph - N/A   Clear
4:55 PM 83.3 °F 82.5 °F 55.6 °F 39% 30.01 in 10.0 mi South 9.2 mph - N/A   Clear
5:15 PM 82.4 °F 82.0 °F 57.2 °F 42% 30.00 in 10.0 mi South 8.1 mph - N/A   Clear
5:35 PM 81.5 °F 81.5 °F 57.6 °F 44% 30.01 in 10.0 mi SSE 6.9 mph - N/A   Clear
5:55 PM 79.9 °F - 58.5 °F 48% 30.01 in 10.0 mi SSE 4.6 mph - N/A   Clear
6:15 PM 77.7 °F - 59.5 °F 53% 30.01 in 10.0 mi SSE 4.6 mph - N/A   Clear
6:35 PM 73.9 °F - 61.2 °F 64% 30.01 in 10.0 mi SSE 4.6 mph - N/A   Clear
6:55 PM 73.4 °F - 60.6 °F 64% 30.02 in 10.0 mi SSE 5.8 mph - N/A   Clear
7:15 PM 72.5 °F - 59.9 °F 64% 30.02 in 10.0 mi SSE 4.6 mph - N/A   Clear
7:35 PM 71.6 °F - 59.0 °F 64% 30.03 in 10.0 mi SSE 4.6 mph - N/A   Clear
7:55 PM 68.7 °F - 59.7 °F 73% 30.03 in 10.0 mi SSE 4.6 mph - N/A   Clear
8:15 PM 66.7 °F - 60.8 °F 81% 30.04 in 10.0 mi SSE 4.6 mph - N/A   Clear
8:35 PM 68.9 °F - 58.5 °F 69% 30.04 in 10.0 mi SSE 4.6 mph - N/A   Clear
8:55 PM 68.2 °F - 58.6 °F 71% 30.05 in 10.0 mi South 4.6 mph - N/A   Clear
9:15 PM 67.3 °F - 58.6 °F 74% 30.05 in 10.0 mi SSE 4.6 mph - N/A   Clear
9:35 PM 67.5 °F - 58.3 °F 72% 30.05 in 10.0 mi SSE 5.8 mph - N/A   Clear
9:55 PM 67.1 °F - 58.3 °F 73% 30.06 in 10.0 mi South 6.9 mph - N/A   Clear
10:15 PM 67.5 °F - 57.6 °F 70% 30.07 in 10.0 mi South 9.2 mph - N/A   Clear
10:35 PM 68.0 °F - 57.2 °F 68% 30.07 in 10.0 mi South 8.1 mph - N/A   Clear
10:55 PM 67.1 °F - 57.2 °F 70% 30.07 in 10.0 mi South 9.2 mph - N/A   Clear
11:15 PM 67.1 °F - 56.8 °F 70% 30.06 in 10.0 mi South 9.2 mph - N/A   Clear
11:35 PM 66.6 °F - 57.0 °F 71% 30.06 in 10.0 mi South 8.1 mph - N/A   Clear
11:55 PM 65.8 °F - 57.2 °F 74% 30.07 in 10.0 mi South 9.2 mph - N/A   Clear